Date String (YYYY-MM-DD hh:mm:ss) UTC,Instrument flags,Ambient pressure (hPa),Sample flow (lpm),Bypass flow (lpm),Sample temperature (°C),Ambient temperature (°C),ASC tube jacket temperature (°C),LED temperature (°C),Box temperature (°C),Sample RH (%),Span deviation,Mass concentration (μg/m³),Mass concentration (μg/m³),Mass concentration (μg/m³)
DateTimeUTC,F1_M11,P_M11,Q1_M11,Q2_M11,T1_M11,T2_M11,T3_M11,T4_M11,T5_M11,U1_M11,ZSPAN_M11,X0_M11,X2_M11,X1_M11
2021-10-05 06:00:00,,0831.7,5.01,0.00,30.1,29.1,00.0,39.2,31.9,10.7,0000.0,0010.98,0003.98,0003.35
2021-10-05 06:01:00,,0831.8,5.00,0.00,30.1,29.1,00.0,39.2,31.9,10.7,0000.0,0010.76,0003.98,0003.35
2021-10-05 06:02:00,,0831.8,5.00,0.00,30.1,29.1,00.0,39.2,31.9,10.6,0000.0,0010.42,0003.97,0003.34
2021-10-05 06:03:00,,0831.8,4.99,0.00,30.1,29.1,00.0,39.2,31.9,10.6,0000.0,0010.15,0003.96,0003.33
2021-10-05 06:04:00,,0831.8,5.00,0.00,30.1,29.2,00.0,39.2,31.9,10.7,0000.0,0010.15,0004.02,0003.33
2021-10-05 06:05:00,,0831.8,5.00,0.00,30.2,29.2,00.0,39.2,31.9,10.7,0000.0,0010.84,0004.04,0003.34
2021-10-05 06:06:00,,0831.8,5.01,0.00,30.2,29.2,00.0,39.2,31.9,10.6,0000.0,0010.51,0004.04,0003.34
2021-10-05 06:07:00,,0831.7,5.01,0.00,30.2,29.2,00.0,39.2,32.0,10.6,0000.0,0009.94,0004.03,0003.35
2021-10-05 06:08:00,,0831.7,5.00,0.00,30.2,29.2,00.0,39.3,31.9,10.5,0000.0,0010.33,0004.03,0003.35
2021-10-05 06:09:00,,0831.7,5.00,0.00,30.2,29.1,00.0,39.3,31.9,10.6,0000.0,0012.16,0004.03,0003.34
2021-10-05 06:10:00,,0831.8,5.01,0.00,30.2,29.2,00.0,39.3,31.9,10.6,0000.0,0012.53,0004.05,0003.36
2021-10-05 06:11:00,,0831.8,4.99,0.00,30.2,29.2,00.0,39.3,32.0,10.5,0000.2,0012.47,0004.03,0003.37
2021-10-05 06:12:00,,0831.9,5.00,0.00,30.2,29.2,00.0,39.3,31.9,10.5,0001.3,0013.50,0004.07,0003.37
2021-10-05 06:13:00,,0831.9,5.02,0.00,30.2,29.2,00.0,39.3,31.9,10.5,0001.5,0013.97,0004.08,0003.37
2021-10-05 06:14:00,,0831.9,5.00,0.00,30.2,29.2,00.0,39.3,31.9,10.5,0001.8,0014.55,0004.09,0003.37
2021-10-05 06:15:00,,0831.9,5.01,0.00,30.2,29.2,00.0,39.3,31.9,10.5,0001.4,0014.77,0004.05,0003.36
2021-10-05 06:16:00,,0832.0,5.00,0.00,30.2,29.2,00.0,39.3,31.9,10.5,0001.2,0014.04,0004.02,0003.35
2021-10-05 06:17:00,,0832.0,5.01,0.00,30.2,29.2,00.0,39.3,31.9,10.5,0000.2,0013.89,0003.99,0003.33
2021-10-05 06:18:00,,0832.0,4.99,0.00,30.2,29.2,00.0,39.3,31.9,10.6,0000.0,0014.48,0004.02,0003.32
2021-10-05 06:19:00,,0832.0,5.01,0.00,30.2,29.2,00.0,39.3,31.9,10.6,0000.0,0014.44,0004.03,0003.31
2021-10-05 06:20:00,,0832.0,4.99,0.00,30.2,29.2,00.0,39.3,31.9,10.6,0000.0,0012.93,0004.04,0003.31
2021-10-05 06:21:00,,0832.0,4.99,0.00,30.2,29.2,00.0,39.3,31.9,10.6,0000.0,0012.34,0004.07,0003.32
2021-10-05 06:22:00,,0831.9,5.00,0.00,30.2,29.2,00.0,39.3,32.0,10.6,0000.0,0012.23,0004.07,0003.31
2021-10-05 06:23:00,,0831.9,5.00,0.00,30.2,29.2,00.0,39.3,31.9,10.6,0000.0,0011.80,0004.05,0003.31
2021-10-05 06:24:00,,0831.9,5.00,0.00,30.2,29.2,00.0,39.4,32.0,10.6,0000.0,0011.50,0004.05,0003.32
2021-10-05 06:25:00,,0831.9,4.99,0.00,30.2,29.2,00.0,39.4,31.9,10.6,0000.0,0011.18,0004.07,0003.32
2021-10-05 06:26:00,,0831.9,5.00,0.00,30.2,29.2,00.0,39.4,31.9,10.6,0000.0,0011.00,0004.11,0003.33
2021-10-05 06:27:00,,0831.9,5.01,0.00,30.3,29.2,00.0,39.4,32.0,10.6,0000.0,0011.11,0004.14,0003.34
2021-10-05 06:28:00,,0831.9,5.00,0.00,30.3,29.2,00.0,39.4,32.0,10.6,0000.0,0011.08,0004.17,0003.36
2021-10-05 06:29:00,,0831.9,5.00,0.00,30.3,29.2,00.0,39.4,32.0,10.6,0000.0,0010.98,0004.19,0003.37
2021-10-05 06:30:00,,0831.9,5.00,0.00,30.3,29.2,00.0,39.4,31.9,10.6,0000.0,0011.34,0004.23,0003.37
2021-10-05 06:31:00,,0831.9,5.00,0.00,30.3,29.2,00.0,39.4,32.0,10.7,0000.0,0011.55,0004.26,0003.37
2021-10-05 06:32:00,,0832.0,5.00,0.00,30.3,29.3,00.0,39.4,32.0,10.6,0000.0,0011.31,0004.19,0003.35
2021-10-05 06:33:00,,0831.9,5.00,0.00,30.3,29.3,00.0,39.4,32.0,10.6,0000.0,0011.61,0004.19,0003.35
2021-10-05 06:34:00,,0832.0,5.00,0.00,30.3,29.3,00.0,39.4,32.0,10.6,0000.0,0011.41,0004.23,0003.34
2021-10-05 06:35:00,,0832.0,4.99,0.00,30.3,29.3,00.0,39.4,32.0,10.6,0000.0,0011.75,0004.20,0003.34
2021-10-05 06:36:00,,0832.0,5.02,0.00,30.3,29.2,00.0,39.4,32.0,10.6,0000.0,0012.00,0004.17,0003.33
2021-10-05 06:37:00,,0832.0,4.99,0.00,30.3,29.3,00.0,39.4,32.0,10.6,0000.0,0012.00,0004.13,0003.33
2021-10-05 06:38:00,,0832.0,4.99,0.00,30.3,29.3,00.0,39.4,32.0,10.6,0000.0,0012.01,0004.14,0003.33
2021-10-05 06:39:00,,0832.0,5.01,0.00,30.3,29.3,00.0,39.4,32.0,10.6,0000.0,0011.84,0004.15,0003.32
2021-10-05 06:40:00,,0832.0,4.99,0.00,30.3,29.3,00.0,39.4,32.0,10.6,0000.0,0011.29,0004.12,0003.31
2021-10-05 06:41:00,,0832.0,5.00,0.00,30.3,29.3,00.0,39.4,32.0,10.7,0000.0,0010.83,0004.09,0003.31
2021-10-05 06:42:00,,0832.0,4.99,0.00,30.3,29.3,00.0,39.4,32.0,10.6,0000.0,0010.43,0004.03,0003.31
2021-10-05 06:43:00,,0832.0,5.00,0.00,30.3,29.3,00.0,39.4,32.0,10.6,0000.0,0010.61,0004.04,0003.31
2021-10-05 06:44:00,,0831.9,5.00,0.00,30.3,29.3,00.0,39.4,32.0,10.6,0000.0,0010.25,0004.03,0003.31
2021-10-05 06:45:00,,0832.0,5.00,0.00,30.3,29.3,00.0,39.4,32.0,10.6,0000.0,0010.16,0003.97,0003.29
2021-10-05 06:46:00,,0832.0,4.99,0.00,30.3,29.3,00.0,39.4,32.1,10.5,0000.0,0009.60,0003.98,0003.29
2021-10-05 06:47:00,,0832.0,5.00,0.00,30.4,29.3,00.0,39.5,32.0,10.5,0000.0,0009.47,0003.99,0003.28
2021-10-05 06:48:00,,0832.1,5.00,0.00,30.4,29.4,00.0,39.5,32.1,10.9,0000.0,0009.91,0003.99,0003.28
2021-10-05 06:49:00,,0832.0,4.99,0.00,30.4,29.4,00.0,39.5,32.1,11.5,0000.0,0009.76,0003.94,0003.27
2021-10-05 06:50:00,,0832.1,5.01,0.00,30.4,29.4,00.0,39.5,32.1,11.4,0000.0,0009.61,0003.89,0003.27
2021-10-05 06:51:00,,0832.1,5.01,0.00,30.4,29.5,00.0,39.5,32.1,11.3,0000.0,0010.37,0003.88,0003.28
2021-10-05 06:52:00,,0832.0,5.00,0.00,30.4,29.5,00.0,39.5,32.2,11.1,0000.0,0011.04,0003.86,0003.28
2021-10-05 06:53:00,,0832.0,4.98,0.00,30.4,29.5,00.0,39.5,32.1,11.0,0000.0,0011.19,0003.85,0003.28
2021-10-05 06:54:00,,0831.9,5.01,0.00,30.4,29.5,00.0,39.5,32.2,10.9,0000.0,0012.00,0003.88,0003.27
2021-10-05 06:55:00,,0832.0,4.99,0.00,30.4,29.5,00.0,39.5,32.2,11.1,0000.0,0012.43,0003.87,0003.26
2021-10-05 06:56:00,,0831.9,5.00,0.00,30.4,29.4,00.0,39.5,32.1,11.1,0000.0,0013.17,0003.88,0003.27
2021-10-05 06:57:00,,0832.0,5.01,0.00,30.4,27.7,00.0,39.5,31.7,11.1,0000.0,0013.22,0003.92,0003.27
2021-10-05 06:58:00,,0832.0,5.01,0.00,30.2,26.4,00.0,39.4,31.3,11.1,0000.0,0013.34,0003.95,0003.27
2021-10-05 06:59:00,,0832.0,5.01,0.00,30.1,26.4,00.0,39.4,31.3,10.9,0000.0,0012.92,0004.01,0003.28
